CST,Max TemperatureF,Mean TemperatureF,Min TemperatureF,Max Dew PointF,MeanDew PointF,Min DewpointF,Max Humidity, Mean Humidity, Min Humidity, Max Sea Level PressureIn, Mean Sea Level PressureIn, Min Sea Level PressureIn, Max VisibilityMiles, Mean VisibilityMiles, Min VisibilityMiles, Max Wind SpeedMPH, Mean Wind SpeedMPH, Max Gust SpeedMPH,PrecipitationIn, CloudCover, Events, WindDirDegrees
2013-1-1,28,20,12,25,19,11,96,82,68,30.35,30.26,30.13,8,4,1,17,7,22,0.06,6,Snow,358
2013-1-2,36,23,10,27,19,8,100,82,64,30.34,30.27,30.18,10,8,4,17,6,21,0.00,3,,254
2013-1-3,37,27,16,23,19,15,92,72,52,30.51,30.45,30.34,10,10,10,15,5,20,0.00,2,,323
2013-1-4,45,29,12,28,21,10,92,69,45,30.46,30.36,30.26,10,10,8,21,8,24,0.00,2,,194
2013-1-5,49,39,29,31,27,20,89,68,46,30.31,30.21,30.12,10,10,10,21,12,26,T,3,Rain,233
2013-1-6,50,37,24,24,21,19,81,55,29,30.45,30.35,30.28,10,10,10,13,7,15,0.00,0,,254
2013-1-7,54,39,24,26,23,18,75,54,32,30.26,30.15,30.05,10,10,10,23,14,29,0.00,4,,185
2013-1-8,57,44,30,32,30,25,89,66,38,30.22,30.05,29.97,10,10,10,18,12,25,0.00,4,,194
2013-1-9,54,40,27,34,30,24,88,63,35,30.43,30.33,30.24,10,10,7,16,7,23,0.00,7,Rain,32
2013-1-10,49,46,42,48,44,36,100,75,50,30.21,29.92,29.74,10,4,0,18,8,25,0.47,8,Fog-Rain,128
2013-1-11,60,50,40,48,43,19,100,63,26,29.86,29.67,29.55,10,9,0,26,16,35,0.00,6,,193
2013-1-12,40,31,22,32,16,9,82,66,50,30.16,30.06,29.89,10,10,10,26,16,33,T,7,Snow,356
2013-1-13,30,22,13,10,7,3,76,55,34,30.41,30.31,30.14,10,10,10,21,11,26,0.00,2,,345
2013-1-14,33,23,12,12,10,8,84,60,36,30.54,30.44,30.38,10,10,10,12,5,22,0.00,5,,45
2013-1-15,36,26,15,14,11,7,80,56,32,30.38,30.31,30.20,10,10,10,10,4,13,0.00,3,,48
2013-1-16,52,34,15,29,21,9,84,63,41,30.26,30.17,30.09,10,10,10,14,6,16,0.00,1,,231
2013-1-17,56,43,29,31,28,25,85,60,35,30.53,30.44,30.29,10,10,10,17,7,23,0.00,0,,316
2013-1-18,60,44,28,32,29,25,92,63,33,30.44,30.24,30.07,10,10,10,29,15,39,0.00,0,,190
2013-1-19,65,47,28,32,27,23,92,56,20,30.26,30.13,30.04,10,10,10,15,7,17,0.00,0,,267
2013-1-20,53,40,26,27,21,6,78,57,35,30.41,30.29,30.20,10,10,10,23,11,30,0.00,3,,48
2013-1-21,38,26,14,15,12,8,80,58,35,30.47,30.39,30.31,10,10,10,17,6,23,0.00,1,,79
2013-1-22,45,31,17,20,16,10,74,54,33,30.34,30.27,30.21,10,10,10,13,6,15,0.00,1,,121
2013-1-23,58,39,19,31,23,15,91,63,35,30.35,30.24,30.15,10,10,9,23,5,29,0.00,6,,28
2013-1-24,31,26,21,23,15,9,92,67,42,30.40,30.29,30.16,10,9,4,24,11,31,T,8,,63
2013-1-25,51,36,20,27,23,18,100,66,32,30.30,30.24,30.19,10,8,5,8,2,10,0.00,5,,299
2013-1-26,59,44,28,39,31,22,75,55,35,30.25,30.14,30.02,10,9,7,22,11,26,0.01,5,Rain,155
2013-1-27,69,56,43,55,49,38,100,80,59,29.99,29.83,29.71,10,5,0,26,17,35,0.00,6,Fog,180
2013-1-28,74,61,47,60,52,46,100,71,41,29.82,29.74,29.62,10,6,0,32,18,40,0.00,5,Fog,181
2013-1-29,65,50,35,59,38,31,93,82,70,29.67,29.61,29.52,10,8,3,21,13,25,0.02,8,Rain,340
2013-1-30,35,26,16,34,22,14,92,71,49,30.04,29.90,29.64,10,8,3,35,17,43,T,6,Snow,316
2013-1-31,32,24,16,22,15,6,84,65,46,30.49,30.24,29.98,10,8,0,28,11,43,0.01,5,Snow,360